FW5426 Weather Reports


time (UTC)temp
F
wind
direction
speed
knots
gust
knots
rain 1hr
in
rain 24hr
in
rain mn
in
humidity
%
barometer
mb
20260507223808 81 157 7.8 13.0 0.00 0.00 0.00 14 1015.0
20260507223306 81 134 7.8 14.8 0.00 0.00 0.00 14 1015.0
20260507222805 82 198 5.2 14.8 0.00 0.00 0.00 14 1015.0
20260507222306 82 143 2.6 9.6 0.00 0.00 0.00 14 1014.9
20260507221805 81 94 1.7 4.3 0.00 0.00 0.00 14 1015.0
20260507221306 81 149 1.7 8.7 0.00 0.00 0.00 14 1015.0
20260507221022 81 162 4.3 12.2 0.00 0.00 0.00 14 1015.1
20260507220255 81 246 5.2 12.2 0.00 0.00 0.00 14 1015.2
20260507220241 81 115 3.5 7.8 0.00 0.00 0.00 15 1015.2
20260507215244 81 131 4.3 11.3 0.00 0.00 0.00 15 1015.2
20260507214747 81 142 5.2 11.3 0.00 0.00 0.00 15 1015.3
20260507214506 80 105 5.2 10.4 0.00 0.00 0.00 15 1015.4
20260507214012 80 133 4.3 10.4 0.00 0.00 0.00 15 1015.4
20260507213245 80 114 3.5 7.0 0.00 0.00 0.00 15 1015.4
20260507212745 80 113 3.5 7.8 0.00 0.00 0.00 15 1015.5
20260507212727 80 123 2.6 7.8 0.00 0.00 0.00 15 1015.5
20260507211743 80 128 4.3 10.4 0.00 0.00 0.00 15 1015.5
20260507211726 80 112 4.3 12.2 0.00 0.00 0.00 14 1015.6
20260507210742 80 138 2.6 12.2 0.00 0.00 0.00 15 1015.8
20260507210240 79 292 1.7 3.5 0.00 0.00 0.00 15 1015.8
20260507205739 79 346 2.6 7.0 0.00 0.00 0.00 15 1015.9
20260507205236 79 22 3.5 9.6 0.00 0.00 0.00 16 1016.1
20260507204735 79 72 3.5 9.6 0.00 0.00 0.00 16 1016.2
20260507204234 79 322 3.5 7.8 0.00 0.00 0.00 16 1016.1
20260507203735 80 88 3.5 7.8 0.00 0.00 0.00 16 1016.2
20260507203454 79 153 2.6 7.8 0.00 0.00 0.00 16 1016.2
20260507202734 78 150 5.2 12.2 0.00 0.00 0.00 16 1016.4
20260507202234 78 238 6.1 12.2 0.00 0.00 0.00 17 1016.5
20260507201734 79 110 4.3 11.3 0.00 0.00 0.00 17 1016.7
20260507201238 79 144 3.5 9.6 0.00 0.00 0.00 17 1016.9
20260507200736 79 167 4.3 9.6 0.00 0.00 0.00 16 1017.0
20260507200234 79 165 5.2 9.6 0.00 0.00 0.00 16 1017.0
20260507195734 78 124 3.5 8.7 0.00 0.00 0.00 16 1017.0
20260507195237 78 132 3.5 9.6 0.00 0.00 0.00 17 1017.1
20260507194733 78 127 3.5 9.6 0.00 0.00 0.00 16 1017.1
20260507194237 79 79 1.7 8.7 0.00 0.00 0.00 17 1017.3
20260507193733 78 188 2.6 6.1 0.00 0.00 0.00 17 1017.3
20260507193234 78 228 2.6 8.7 0.00 0.00 0.00 17 1017.4
20260507192734 77 134 2.6 8.7 0.00 0.00 0.00 17 1017.4
20260507192234 77 132 3.5 8.7 0.00 0.00 0.00 18 1017.7
20260507191733 76 138 3.5 8.7 0.00 0.00 0.00 19 1017.7
20260507191457 76 355 3.5 7.0 0.00 0.00 0.00 20 1017.7
20260507190734 76 28 3.5 7.0 0.00 0.00 0.00 19 1017.9
20260507190234 76 102 3.5 8.7 0.00 0.00 0.00 19 1018.0
20260507185736 76 101 2.6 8.7 0.00 0.00 0.00 19 1018.1
20260507185458 76 69 2.6 5.2 0.00 0.00 0.00 20 1018.1
20260507184733 75 273 3.5 8.7 0.00 0.00 0.00 21 1018.1
20260507184236 75 218 2.6 8.7 0.00 0.00 0.00 21 1018.3
20260507183735 75 94 0.9 6.1 0.00 0.00 0.00 22 1018.3
20260507183452 74 80 1.7 7.0 0.00 0.00 0.00 22 1018.2
20260507182737 74 269 2.6 7.0 0.00 0.00 0.00 23 1018.3
20260507182232 74 327 2.6 6.1 0.00 0.00 0.00 22 1018.3
20260507181733 74 304 2.6 7.8 0.00 0.00 0.00 22 1018.4
20260507181714 74 40 1.7 7.8 0.00 0.00 0.00 22 1018.4
20260507180736 74 355 1.7 6.1 0.00 0.00 0.00 22 1018.7
20260507180233 73 181 1.7 6.1 0.00 0.00 0.00 22 1018.6
20260507175733 72 24 1.7 7.0 0.00 0.00 0.00 23 1018.7
20260507175233 72 198 2.6 7.8 0.00 0.00 0.00 23 1018.7
20260507174733 72 96 3.5 7.8 0.00 0.00 0.00 24 1018.8
20260507174234 72 130 3.5 7.0 0.00 0.00 0.00 23 1018.9
20260507173955 72 66 2.6 8.7 0.00 0.00 0.00 24 1019.0
20260507173233 71 44 2.6 8.7 0.00 0.00 0.00 24 1019.0
20260507172725 71 88 2.6 8.7 0.00 0.00 0.00 24 1019.1
20260507172222 71 284 2.6 7.0 0.00 0.00 0.00 26 1019.1
20260507171930 71 342 2.6 7.0 0.00 0.00 0.00 27 1019.3
20260507171921 71 0 2.6 7.0 0.00 0.00 0.00 27 1019.2
20260507170722 70 120 2.6 7.0 0.00 0.00 0.00 27 1019.3
20260507170222 69 139 2.6 6.1 0.00 0.00 0.00 29 1019.5
20260507165722 69 17 2.6 7.0 0.00 0.00 0.00 30 1019.5
20260507165225 68 5 2.6 7.0 0.00 0.00 0.00 31 1019.6
20260507164720 68 37 2.6 7.0 0.00 0.00 0.00 31 1019.7
20260507164221 68 11 2.6 7.8 0.00 0.00 0.00 30 1019.7
20260507163720 68 132 2.6 7.8 0.00 0.00 0.00 31 1019.8
20260507163223 67 59 2.6 8.7 0.00 0.00 0.00 31 1019.9
20260507162721 67 119 2.6 8.7 0.00 0.00 0.00 30 1019.8
20260507162221 66 309 2.6 7.0 0.00 0.00 0.00 32 1019.9
20260507161723 66 317 2.6 7.0 0.00 0.00 0.00 31 1019.9
20260507161216 66 325 3.5 8.7 0.00 0.00 0.00 32 1020.0
20260507160718 66 64 2.6 8.7 0.00 0.00 0.00 32 1019.9
20260507160217 65 315 2.6 5.2 0.00 0.00 0.00 33 1020.1
20260507155716 65 355 3.5 7.8 0.00 0.00 0.00 33 1020.1
20260507155216 65 68 3.5 7.8 0.00 0.00 0.00 33 1020.1
20260507154716 64 9 3.5 8.7 0.00 0.00 0.00 34 1020.2
20260507154419 64 5 3.5 8.7 0.00 0.00 0.00 35 1020.4
20260507154413 64 35 3.5 8.7 0.00 0.00 0.00 35 1020.2
20260507153216 63 343 3.5 8.7 0.00 0.00 0.00 36 1020.4
20260507152712 63 334 3.5 8.7 0.00 0.00 0.00 36 1020.2
20260507152215 63 70 3.5 11.3 0.00 0.00 0.00 36 1020.5
20260507151711 62 31 4.3 11.3 0.00 0.00 0.00 37 1020.5
20260507151212 62 22 3.5 8.7 0.00 0.00 0.00 37 1020.5
20260507150712 62 21 3.5 7.0 0.00 0.00 0.00 38 1020.6
20260507150439 61 21 3.5 7.0 0.00 0.00 0.00 38 1020.6
20260507145714 61 341 3.5 8.7 0.00 0.00 0.00 38 1020.6
20260507145214 61 59 4.3 8.7 0.00 0.00 0.00 38 1020.6
20260507144713 60 5 4.3 8.7 0.00 0.00 0.00 38 1020.6
20260507144206 60 24 4.3 10.4 0.00 0.00 0.00 38 1020.7
20260507143706 60 17 5.2 10.4 0.00 0.00 0.00 38 1020.6
20260507143205 60 57 5.2 9.6 0.00 0.00 0.00 38 1020.6
20260507142705 60 41 5.2 10.4 0.00 0.00 0.00 39 1020.7
20260507142208 60 11 3.5 10.4 0.00 0.00 0.00 39 1020.6
20260507141706 59 43 4.3 8.7 0.00 0.00 0.00 40 1020.7
20260507141209 59 21 5.2 8.7 0.00 0.00 0.00 41 1020.7
20260507140923 58 331 4.3 8.7 0.00 0.00 0.00 41 1020.6
20260507140205 58 5 3.5 7.8 0.00 0.00 0.00 41 1020.6
20260507135706 58 11 4.3 8.7 0.00 0.00 0.00 41 1020.6
20260507135218 57 12 4.3 8.7 0.00 0.00 0.00 41 1020.6
20260507134706 57 30 4.3 8.7 0.00 0.00 0.00 41 1020.6
20260507134207 57 5 4.3 8.7 0.00 0.00 0.00 41 1020.6
20260507133932 57 5 5.2 11.3 0.00 0.00 0.00 40 1020.6
20260507133205 56 10 5.2 11.3 0.00 0.00 0.00 40 1020.5
20260507132706 57 13 4.3 9.6 0.00 0.00 0.00 39 1020.2
20260507132206 56 0 4.3 9.6 0.00 0.00 0.00 39 1020.1
20260507131706 56 15 4.3 9.6 0.00 0.00 0.00 38 1020.0
20260507131207 57 26 4.3 9.6 0.00 0.00 0.00 37 1020.0
20260507130924 56 347 3.5 8.7 0.00 0.00 0.00 37 1020.0
20260507130207 56 13 4.3 8.7 0.00 0.00 0.00 38 1019.9
20260507125705 56 11 3.5 8.7 0.00 0.00 0.00 40 1020.0
20260507125209 55 5 4.3 8.7 0.00 0.00 0.00 41 1019.9
20260507124707 55 20 4.3 9.6 0.00 0.00 0.00 42 1019.8
20260507124205 55 21 4.3 9.6 0.00 0.00 0.00 43 1019.8
20260507123706 54 16 3.5 7.8 0.00 0.00 0.00 43 1019.6
20260507123205 54 0 2.6 7.8 0.00 0.00 0.00 43 1019.7
20260507122706 54 15 2.6 7.0 0.00 0.00 0.00 43 1019.7
20260507122427 54 23 3.5 7.0 0.00 0.00 0.00 43 1019.6
20260507121705 54 339 3.5 9.6 0.00 0.00 0.00 44 1019.6
20260507121205 54 324 3.5 9.6 0.00 0.00 0.00 44 1019.5
20260507120705 54 347 4.3 8.7 0.00 0.00 0.00 44 1019.3
20260507120209 54 355 4.3 9.6 0.00 0.00 0.00 43 1019.3
20260507115710 53 319 4.3 9.6 0.00 0.00 0.00 42 1019.3
20260507115433 53 9 2.6 8.7 0.00 0.00 0.00 41 1019.5
20260507114706 53 332 2.6 7.8 0.00 0.00 0.00 40 1019.2
20260507114208 53 20 3.5 7.8 0.00 0.00 0.00 38 1019.2
20260507113705 53 5 2.6 7.8 0.00 0.00 0.00 37 1019.3
20260507113205 53 5 2.6 7.8 0.00 0.00 0.00 35 1019.2
20260507112705 53 328 3.5 9.6 0.00 0.00 0.00 33 1019.2
20260507112205 53 5 4.3 11.3 0.00 0.00 0.00 32 1019.2
20260507111706 53 32 4.3 11.3 0.00 0.00 0.00 30 1019.1
20260507111209 53 0 4.3 8.7 0.00 0.00 0.00 29 1019.1
20260507110706 53 14 4.3 8.7 0.00 0.00 0.00 28 1018.9
20260507110410 53 5 3.5 7.8 0.00 0.00 0.00 28 1018.9
20260507110403 53 349 3.5 8.7 0.00 0.00 0.00 28 1018.9
20260507105203 54 26 5.2 10.4 0.00 0.00 0.00 27 1018.7
20260507104652 55 37 5.2 10.4 0.00 0.00 0.00 26 1018.8
20260507104150 56 49 2.6 8.7 0.00 0.00 0.00 27 1018.7
20260507104139 57 355 1.7 2.6 0.00 0.00 0.00 27 1018.4
20260507103642 56 330 1.7 2.6 0.00 0.00 0.00 27 1018.3
20260507102650 57 327 0.9 2.6 0.00 0.00 0.00 27 1018.3
20260507102152 57 327 0.0 1.7 0.00 0.00 0.00 27 1018.4
20260507101646 57 327 0.0 1.7 0.00 0.00 0.00 26 1018.4
20260507101143 57 327 0.9 2.6 0.00 0.00 0.00 26 1018.4
20260507100646 57 327 0.0 2.6 0.00 0.00 0.00 26 1018.4
20260507100144 58 309 0.0 1.7 0.00 0.00 0.00 26 1018.4
20260507095641 58 290 1.7 5.2 0.00 0.00 0.00 26 1018.4
20260507095140 58 290 1.7 5.2 0.00 0.00 0.00 25 1018.4
20260507094642 58 289 0.9 3.5 0.00 0.00 0.00 25 1018.4
20260507094358 58 136 0.9 2.6 0.00 0.00 0.00 24 1018.4
20260507093640 58 136 0.9 2.6 0.00 0.00 0.00 24 1018.3
20260507093141 59 103 0.0 0.0 0.00 0.00 0.00 24 1018.3
20260507092637 60 103 0.0 0.0 0.00 0.00 0.00 23 1018.4
20260507092138 60 103 0.0 1.7 0.00 0.00 0.00 22 1018.4
20260507091636 60 103 0.9 1.7 0.00 0.00 0.00 22 1018.3
20260507091136 61 103 0.9 1.7 0.00 0.00 0.00 21 1018.3
20260507090633 61 103 0.9 2.6 0.00 0.00 0.00 20 1018.3
20260507090354 62 103 1.7 6.1 0.00 0.00 0.00 20 1018.3
20260507085637 62 105 2.6 6.1 0.00 0.00 0.00 20 1018.2
20260507085133 62 123 0.9 5.2 0.00 0.00 0.00 19 1018.3
20260507084855 62 175 0.0 1.7 0.00 0.00 0.00 19 1018.2
20260507084133 62 195 0.0 1.7 0.00 0.00 0.00 19 1018.2
20260507083634 62 195 0.9 3.5 0.00 0.00 0.00 18 1018.2
20260507083135 62 80 0.9 3.5 0.00 0.00 0.00 18 1018.2
20260507082634 63 63 2.6 7.8 0.00 0.00 0.00 18 1018.2
20260507082134 63 306 3.5 7.8 0.00 0.00 0.00 18 1018.1
20260507081635 63 219 2.6 7.8 0.00 0.00 0.00 18 1018.1
20260507081133 64 248 2.6 5.2 0.00 0.00 0.00 17 1018.1
20260507080844 65 219 2.6 5.2 0.00 0.00 0.00 17 1018.1
20260507080837 64 228 2.6 4.3 0.00 0.00 0.00 17 1018.1
20260507075855 65 248 3.5 6.1 0.00 0.00 0.00 16 1018.2
20260507075133 66 265 2.6 6.1 0.00 0.00 0.00 16 1018.1
20260507074635 67 299 2.6 7.0 0.00 0.00 0.00 15 1018.2
20260507074128 67 299 3.5 8.7 0.00 0.00 0.00 16 1018.1
20260507073625 67 309 3.5 7.8 0.00 0.00 0.00 15 1018.3
20260507073340 67 338 5.2 9.6 0.00 0.00 0.00 15 1018.3
20260507072610 67 355 4.3 9.6 0.00 0.00 0.00 15 1018.2
20260507072107 67 11 3.5 7.8 0.00 0.00 0.00 15 1018.2
20260507071608 66 9 2.6 7.8 0.00 0.00 0.00 15 1018.3
20260507071106 66 9 2.6 7.0 0.00 0.00 0.00 15 1018.3
20260507070607 66 22 1.7 7.0 0.00 0.00 0.00 15 1018.3
20260507070107 66 0 1.7 4.3 0.00 0.00 0.00 15 1018.2
20260507065607 66 0 0.9 3.5 0.00 0.00 0.00 15 1018.3
20260507065107 66 0 1.7 4.3 0.00 0.00 0.00 15 1018.2
20260507064610 66 17 2.6 7.0 0.00 0.00 0.00 14 1018.2
20260507064106 65 9 1.7 7.0 0.00 0.00 0.00 14 1018.1
20260507063608 65 314 2.6 4.3 0.00 0.00 0.00 15 1018.2
20260507063331 65 309 2.6 6.1 0.00 0.00 0.00 15 1018.1
20260507062607 66 309 2.6 6.1 0.00 0.00 0.00 14 1018.1
20260507062107 66 5 3.5 7.0 0.00 0.00 0.00 14 1018.0
20260507061605 66 18 2.6 7.0 0.00 0.00 0.00 14 1018.0
20260507061546 65 5 1.7 6.1 0.00 0.00 0.00 14 1018.0
20260507060605 66 0 1.7 6.1 0.00 0.00 0.00 14 1018.0
20260507060104 66 42 1.7 6.1 0.00 0.00 0.00 14 1018.0
20260507055601 66 31 1.7 6.1 0.00 0.00 0.00 15 1017.8
20260507055319 66 298 1.7 6.1 0.00 0.00 0.00 14 1017.8
20260507054548 67 349 1.7 7.0 0.00 0.00 0.00 14 1017.7
20260507054050 67 329 2.6 7.0 0.00 0.00 0.00 13 1017.8
20260507053547 66 49 1.7 5.2 0.00 0.00 0.00 14 1017.8
20260507053047 67 303 0.9 3.5 0.00 0.00 0.00 15 1017.9
20260507052810 67 44 0.9 3.5 0.00 0.00 0.00 15 1017.9
20260507052045 68 92 1.7 4.3 0.00 0.00 0.00 14 1017.8
20260507051543 69 68 1.7 5.2 0.00 0.00 0.00 14 1017.9
20260507051042 69 149 1.7 5.2 0.00 0.00 0.00 13 1017.9
20260507050543 69 136 1.7 4.3 0.00 0.00 0.00 13 1017.8
20260507050040 69 123 0.9 4.3 0.00 0.00 0.00 13 1017.8
20260507045539 69 180 0.9 2.6 0.00 0.00 0.00 13 1017.8
20260507045039 70 310 0.0 3.5 0.00 0.00 0.00 12 1017.8
20260507044801 70 310 0.9 3.5 0.00 0.00 0.00 12 1017.9
20260507044039 70 309 1.7 7.8 0.00 0.00 0.00 11 1017.8
20260507043539 70 304 1.7 7.8 0.00 0.00 0.00 11 1017.8
20260507043040 70 303 2.6 8.7 0.00 0.00 0.00 11 1017.7
20260507042535 70 293 2.6 8.7 0.00 0.00 0.00 11 1017.6
20260507042032 70 23 1.7 6.1 0.00 0.00 0.00 12 1017.8
20260507041532 70 311 0.9 6.1 0.00 0.00 0.00 12 1017.7
20260507041031 70 342 0.9 6.1 0.00 0.00 0.00 12 1017.7
20260507040532 70 342 2.6 7.8 0.00 0.00 0.00 12 1017.6
20260507040024 70 323 3.5 7.8 0.00 0.00 0.00 12 1017.6
20260507035519 69 301 2.6 7.8 0.00 0.00 0.00 13 1017.6
20260507035012 69 314 0.9 7.8 0.00 0.00 0.00 14 1017.7
20260507034506 69 331 0.9 3.5 0.00 0.00 0.00 15 1017.6
20260507034007 69 331 0.9 4.3 0.00 0.00 0.00 16 1017.4
20260507033507 68 343 0.9 4.3 0.00 0.00 0.00 16 1017.3
20260507033229 68 5 0.9 2.6 0.00 0.00 0.00 17 1017.3
20260507032504 69 5 0.0 2.6 0.00 0.00 0.00 17 1017.3
20260507032007 69 5 0.0 1.7 0.00 0.00 0.00 16 1017.3
20260507031741 70 5 0.0 0.9 0.00 0.00 0.00 16 1017.2
20260507031002 70 5 0.0 1.7 0.00 0.00 0.00 16 1017.2
20260507030503 70 5 0.9 4.3 0.00 0.00 0.00 15 1017.2
20260507030005 71 5 0.9 7.0 0.00 0.00 0.00 15 1017.1
20260507025505 71 331 0.0 7.0 0.00 0.00 0.00 15 1017.0
20260507025002 71 0 0.9 3.5 0.00 0.00 0.00 15 1017.0
20260507024502 71 0 1.7 4.3 0.00 0.00 0.00 15 1016.9
20260507024003 72 19 1.7 4.3 0.00 0.00 0.00 15 1016.8
20260507023502 72 261 1.7 5.2 0.00 0.00 0.00 14 1016.8
20260507023227 72 261 2.6 7.8 0.00 0.00 0.00 14 1016.7
20260507022502 72 284 2.6 7.8 0.00 0.00 0.00 14 1016.5
20260507022016 72 311 1.7 7.0 0.00 0.00 0.00 14 1016.4
20260507021913 72 304 1.7 5.2 0.00 0.00 0.00 14 1016.4
20260507021906 73 321 2.6 7.0 0.00 0.00 0.00 15 1016.4
20260507020449 73 303 3.5 9.6 0.00 0.00 0.00 15 1016.3
20260507015949 73 321 4.3 9.6 0.00 0.00 0.00 15 1016.3
20260507015448 73 300 4.3 9.6 0.00 0.00 0.00 15 1016.2
20260507014949 73 315 4.3 9.6 0.00 0.00 0.00 15 1016.1
20260507014449 73 306 4.3 9.6 0.00 0.00 0.00 15 1016.1
20260507013951 74 286 3.5 9.6 0.00 0.00 0.00 15 1016.0
20260507013717 74 307 3.5 9.6 0.00 0.00 0.00 15 1016.0
20260507012949 74 307 3.5 10.4 0.00 0.00 0.00 15 1016.0
20260507012711 74 263 4.3 10.4 0.00 0.00 0.00 15 1015.9
20260507011948 74 348 4.3 9.6 0.00 0.00 0.00 14 1015.9
20260507011448 75 319 3.5 9.6 0.00 0.00 0.00 14 1015.8
20260507010947 75 5 4.3 12.2 0.00 0.00 0.00 14 1015.8
20260507010446 75 317 5.2 12.2 0.00 0.00 0.00 14 1015.6
20260507010214 76 296 6.1 11.3 0.00 0.00 0.00 14 1015.5
20260507005446 76 287 7.0 12.2 0.00 0.00 0.00 14 1015.6
20260507004946 76 336 6.1 13.0 0.00 0.00 0.00 14 1015.5
20260507004446 76 304 6.1 13.0 0.00 0.00 0.00 14 1015.5
20260507003947 76 0 7.0 13.0 0.00 0.00 0.00 14 1015.4
20260507003446 76 284 6.1 16.5 0.00 0.00 0.00 14 1015.3
20260507003205 76 311 7.0 16.5 0.00 0.00 0.00 14 1015.3
20260507002707 76 257 7.8 15.6 0.00 0.00 0.00 14 1015.2
20260507001947 76 321 7.0 15.6 0.00 0.00 0.00 14 1015.2
20260507001447 76 315 7.0 13.0 0.00 0.00 0.00 14 1015.2
20260507000946 76 286 7.8 13.9 0.00 0.00 0.00 14 1015.2
20260507000709 76 283 6.1 13.9 0.00 0.00 0.00 14 1015.2
20260506235942 76 317 7.0 13.9 0.00 0.00 0.00 14 1015.2
20260506235706 77 348 8.7 13.9 0.00 0.00 0.00 13 1015.2
20260506234943 77 261 7.0 13.9 0.00 0.00 0.00 14 1015.1
20260506234442 77 314 7.8 12.2 0.00 0.00 0.00 14 1015.1
20260506233942 77 315 8.7 13.9 0.00 0.00 0.00 14 1015.1
20260506233701 77 294 8.7 13.9 0.00 0.00 0.00 13 1015.1
20260506232942 76 330 8.7 16.5 0.00 0.00 0.00 14 1015.0
20260506232443 77 299 8.7 16.5 0.00 0.00 0.00 14 1015.0
20260506231941 77 315 8.7 14.8 0.00 0.00 0.00 14 1015.0
20260506231701 76 294 8.7 14.8 0.00 0.00 0.00 14 1015.0
20260506230940 77 297 7.8 14.8 0.00 0.00 0.00 13 1015.0
20260506230439 77 299 6.1 17.4 0.00 0.00 0.00 14 1015.0
20260506225941 77 274 7.8 17.4 0.00 0.00 0.00 14 1015.0
20260506225440 77 309 7.8 15.6 0.00 0.00 0.00 14 1015.1
20260506224940 78 265 6.1 13.0 0.00 0.00 0.00 14 1015.0
20260506224440 77 300 6.1 12.2 0.00 0.00 0.00 15 1015.1
20260506223940 76 299 7.8 16.5 0.00 0.00 0.00 15 1015.1